Monte Cimone, Italy

4:11 PM CET on November 19, 2017 (GMT +0100)
Monte Cimone

Weather History for LIVC - November, 2013

Change the Weather History Date:

Monday, November 18, 2013

  Actual Average Record
Temperature  
Mean Temperature 33 °F -  
Max Temperature 35 °F 33 °F 52 °F (2015)
Min Temperature 31 °F 25 °F 15 °F (2005)
Degree Days  
Heating Degree Days 32    
Moisture  
Dew Point 31 °F    
Average Humidity 95    
Maximum Humidity 100    
Minimum Humidity 78    
Precipitation  
Precipitation 0.00 in 0.08 in - ()
Sea Level Pressure  
Sea Level Pressure 29.96 in    
Wind  
Wind Speed 21 mph ()    
Max Wind Speed 31 mph    
Max Gust Speed -    
Visibility 3.1 miles    
Events Fog    
Averages and records for this station are not official NWS values.
T = Trace of Precipitation, MM = Missing Value Source: Averaged Metar Reports

Daily Weather History Graph

Daily Weather History Graph

Search for Another Location

Airport or City:

Trip Planner

Search our weather history database for the weather conditions in past years. The results will help you decide how hot, cold, wet, or windy it might be!

Date:

Astronomy

Nov. 18, 2013 Rise Set
Actual Time 7:16 AM CET 4:47 PM CET
Civil Twilight 6:45 AM CET 5:19 PM CET
Nautical Twilight 6:09 AM CET 5:54 PM CET
Astronomical Twilight 5:35 AM CET 6:28 PM CET
Moon 5:36 PM CET (11/18) 7:50 AM CET (11/18)
Length of Visible Light 10h 34m
Length of Day
9h 31m
Full, 99% of the Moon is Illuminated
Nov 18
Full
Nov 25
Last Quarter
Dec 3
New
Dec 9
First Quarter
Dec 17
Full

Hourly Weather History & Observations

Time (CET) Temp. Windchill Dew Point Humidity Pressure Visibility Wind Dir Wind Speed Gust Speed Precip Events Conditions
12:00 AM 32 °F - 28 °F 78%  in 9 mi South 15.0 mph - -   Scattered Clouds
12:55 AM 32.0 °F 20.5 °F 30.2 °F 93% 30.09 in 6.2 mi South 18.4 mph - N/A   Scattered Clouds
1:00 AM 32 °F - 31 °F 94%  in 9 mi South 18.4 mph - -   Partly Cloudy
1:55 AM 32.0 °F 19.8 °F 30.2 °F 93% 30.06 in 6.2 mi SSE 20.7 mph - N/A   Scattered Clouds
2:55 AM 32.0 °F 19.5 °F 32.0 °F 100% 30.06 in 0.0 mi South 21.9 mph - N/A Fog Fog
3:00 AM 32 °F - 32 °F 100%  in 0 mi South 21.9 mph - - Fog Heavy Fog
3:55 AM 32.0 °F 18.1 °F 32.0 °F 100% 30.04 in 0.0 mi South 27.6 mph - N/A Fog Fog
4:55 AM 32.0 °F 18.6 °F 32.0 °F 100% 30.04 in 0.0 mi SSE 25.3 mph - N/A Fog Fog
5:00 AM 32 °F - 32 °F 100%  in 0 mi SSE 25.3 mph - - Fog Heavy Fog
5:55 AM 32.0 °F 17.9 °F 32.0 °F 100% 30.01 in 0.0 mi SSE 28.8 mph - N/A Fog Fog
6:55 AM 32.0 °F 17.6 °F 32.0 °F 100% 30.01 in 0.0 mi SSE 29.9 mph - N/A Fog Light Freezing Fog
7:00 AM 32 °F - 32 °F 100%  in 0 mi SSE 29.9 mph - - Fog Heavy Fog
7:55 AM 32.0 °F 18.1 °F 32.0 °F 100% 30.01 in 0.0 mi SSE 27.6 mph - N/A Fog Light Freezing Fog
8:00 AM 32 °F - 32 °F 100%  in 0 mi SSE 27.6 mph - - Fog Heavy Fog
8:55 AM 33.8 °F 20.3 °F 30.2 °F 87% 30.01 in 6.2 mi SSE 28.8 mph - N/A   Scattered Clouds
9:55 AM 33.8 °F 21.0 °F 28.4 °F 81% 30.01 in 6.2 mi SE 25.3 mph - N/A   Scattered Clouds
10:55 AM 32.0 °F 19.2 °F 30.2 °F 93% 30.01 in 6.2 mi SE 23.0 mph - N/A   Scattered Clouds
11:00 AM 33 °F - 31 °F 87%  in 6 mi SE 23.0 mph - -   Partly Cloudy
11:55 AM 32.0 °F 17.9 °F 26.6 °F 80% 29.98 in 6.2 mi SE 28.8 mph - N/A   Scattered Clouds
12:55 PM 32.0 °F 18.4 °F 32.0 °F 100% 29.95 in 6.2 mi SE 26.5 mph - N/A   Scattered Clouds
1:00 PM 33 °F - 31 °F 92%  in 6 mi SE 26.5 mph - -   Partly Cloudy
1:55 PM 33.8 °F 20.3 °F 32.0 °F 93% 29.95 in 6.2 mi SE 28.8 mph - N/A   Mostly Cloudy
2:00 PM 34 °F - 31 °F 85%  in 7 mi SE 28.8 mph - -   Partly Cloudy
2:55 PM 32.0 °F 18.4 °F 32.0 °F 100% 29.92 in 6.2 mi SE 26.5 mph - N/A   Mostly Cloudy
3:00 PM 33 °F - 33 °F 98%  in 7 mi SE 26.5 mph - -   Scattered Clouds
3:55 PM 32.0 °F 18.9 °F 30.2 °F 93% 29.92 in 6.2 mi SE 24.2 mph - N/A   Mostly Cloudy
4:55 PM 32.0 °F 19.2 °F 32.0 °F 100% 29.89 in 6.2 mi SE 23.0 mph - N/A   Mostly Cloudy
5:00 PM 32 °F - 32 °F 100%  in 9 mi SE 23.0 mph - -   Scattered Clouds
5:55 PM 32.0 °F 18.1 °F 32.0 °F 100% 29.89 in 0.0 mi SE 27.6 mph - N/A Fog Fog
6:00 PM 33 °F - 33 °F 98%  in 0 mi SE 27.6 mph - - Fog Heavy Fog
6:55 PM 32.0 °F 17.4 °F 32.0 °F 100% 29.89 in 0.0 mi ESE 31.1 mph - N/A Fog Fog
7:00 PM 32 °F - 31 °F 96%  in 0 mi ESE 31.1 mph - - Fog Heavy Fog
7:55 PM 32.0 °F 20.5 °F 30.2 °F 93% 29.86 in 0.0 mi East 18.4 mph - N/A Fog Light Freezing Fog
8:00 PM 32 °F - 31 °F 92%  in 0 mi East 18.4 mph - - Fog Heavy Fog
8:55 PM 32.0 °F 19.2 °F 30.2 °F 93% 29.86 in 0.0 mi East 23.0 mph - N/A Fog Light Freezing Fog
9:00 PM 32 °F - 31 °F 92%  in 0 mi East 23.0 mph - - Fog Heavy Fog
9:55 PM 32.0 °F 18.6 °F 30.2 °F 93% 29.86 in 0.0 mi East 25.3 mph - N/A Fog Light Freezing Fog
10:55 PM 32.0 °F 19.2 °F 30.2 °F 93% 29.83 in 0.0 mi East 23.0 mph - N/A Fog Light Freezing Fog
11:55 PM 32.0 °F 19.5 °F 30.2 °F 93% 29.80 in 0.0 mi East 21.9 mph - N/A Fog Light Freezing Fog